Regional Weather Roundup
Issued by NWS

Home | Current Version | Previous Version | Graphics & Text | Print | Product List | Glossary On
Versions: 1 2 3 4 5 6 7 8 9 10 11 12 13 14 15 16 17 18 19 20 21 22 23 24 25 26 27 28 29 30 31 32 33 34 35 36 37 38 39 40 41 42 43 44 45 46 47 48 49 50
722
ASUS43 KDTX 261810
RWRMI
MICHIGAN HOURLY REGIONAL WEATHER ROUNDUP
NATIONAL WEATHER SERVICE DETROIT/PONTIAC MI
200 PM EDT TUE SEP 26 2017

NOTE: "FAIR" INDICATES FEW OR NO CLOUDS BELOW 12,000 FEET WITH NO
SIGNIFICANT WEATHER AND/OR OBSTRUCTION TO VISIBILITY.

MIZ047>049-052>055-059>063-066>070-074>076-081>083-261900-
SOUTHEAST LOWER MICHIGAN

CITY           SKY/WX    TMP DP  RH WIND       PRES   REMARKS
ADRIAN         SUNNY     89  60  37 SW8       29.99F
6HR MIN TEMP:  61; 6HR MAX TEMP:  89;

ALMA           SUNNY     90  47  23 S8        29.95F
6HR MIN TEMP:  55; 6HR MAX TEMP:  90;

ANN ARBOR      SUNNY     91  58  32 S10       29.97F HX  90
BAD AXE        PTSUNNY   87  57  36 SW6G16    29.96F
CARO           MOSUNNY   91  60  34 S8        29.95F HX  90
DETROIT CITY   SUNNY     89  60  37 VRB7      29.96F
6HR MIN TEMP:  69; 6HR MAX TEMP:  89;

FLINT          MOSUNNY   87  59  38 VRB7      29.96F
6HR MIN TEMP:  60; 6HR MAX TEMP:  90;

GROSSE ILE     SUNNY     80  69  68 S6        29.97F
6HR MIN TEMP:  70; 6HR MAX TEMP:  80;

HILLSDALE      CLOUDY    88  59  37 SW8       30.00F
HOWELL         SUNNY     89  53  29 SW3       29.98S
6HR MIN TEMP:  63; 6HR MAX TEMP:  90;


CITY           SKY/WX    TMP DP  RH WIND       PRES   REMARKS
JACKSON        MOSUNNY   89  57  33 S10G17    29.98F
6HR MIN TEMP:  63; 6HR MAX TEMP:  90;

LAMBERTVILLE   SUNNY     90  64  42 SW7       29.98F HX  91
6HR MIN TEMP:  64; 6HR MAX TEMP:  90;

LANSING        SUNNY     91  54  28 SW10      29.97F
6HR MIN TEMP:  65; 6HR MAX TEMP:  91;

LAPEER         FAIR      89  60  37 S5        29.97F
6HR MIN TEMP:  60; 6HR MAX TEMP:  89;

MASON          SUNNY     90  55  30 W6        29.97F
MONROE         SUNNY     89  60  37 W6        29.97F
MT. CLEMENS    MOSUNNY   87  66  50 S8        29.95F
6HR MIN TEMP:  66; 6HR MAX TEMP:  87;

PONTIAC        MOSUNNY   88  60  38 VRB7      29.96F
6HR MIN TEMP:  65; 6HR MAX TEMP:  89;

PORT HOPE        N/A     75  70  84 E9        29.95F
6HR MIN TEMP:  68; 6HR MAX TEMP:  81;

PORT HURON     SUNNY     90  63  40 SW3       29.96F HX  90
TRI CITIES     SUNNY     91  55  29 W10       29.95F
6HR MIN TEMP:  63; 6HR MAX TEMP:  91;

MIDLAND        FAIR      90  56  31 W9        29.94F
6HR MIN TEMP:  59; 6HR MAX TEMP:  91;

TROY           SUNNY     89  56  32 SW9       29.99F
SAGINAW HB     MOSUNNY   88  57  35 SW7       29.95F
$$
MIZ043>046-050>051-056>058-064>065-071>073-077>080-261900-
SOUTHWEST LOWER MICHIGAN

CITY           SKY/WX    TMP DP  RH WIND       PRES   REMARKS
BATTLE CREEK   PTSUNNY   88  60  38 S5        29.98F
6HR MIN TEMP:  63; 6HR MAX TEMP:  91;

BENTON HARBOR  SUNNY     88  60  38 SW9       29.96F
6HR MIN TEMP:  65; 6HR MAX TEMP:  88;

BIG RAPIDS     SUNNY     88  51  28 S10G18    29.95F
6HR MIN TEMP:  55; 6HR MAX TEMP:  88;

COLDWATER      MOSUNNY   88  56  34 W9        29.99S
6HR MIN TEMP:  63; 6HR MAX TEMP:  88;

FREMONT        FAIR      88  60  39 SW10      29.95S
HOLLAND        MOSUNNY   89  62  40 SW13      29.97S
6HR MIN TEMP:  64; 6HR MAX TEMP:  90;

GRAND RAPIDS   PTSUNNY   89  60  37 S10G20    29.95F
6HR MIN TEMP:  61; 6HR MAX TEMP:  92;

IONIA          FAIR      91  51  25 SW8G17    29.95F
6HR MIN TEMP:  59; 6HR MAX TEMP:  91;

KALAMAZOO      MOSUNNY   89  59  36 VRB6      29.97F
6HR MIN TEMP:  61; 6HR MAX TEMP:  90;

LUDINGTON      CLOUDY    85  64  48 SW12      29.92S
6HR MIN TEMP:  56; 6HR MAX TEMP:  86;

MARSHALL       MOSUNNY   88  61  40 SW6       29.97F
6HR MIN TEMP:  60; 6HR MAX TEMP:  89;

MOUNT PLEASANT SUNNY     91  52  26 S10       29.95F
6HR MIN TEMP:  60; 6HR MAX TEMP:  91;

MUSKEGON       MOSUNNY   85  61  44 S14       29.95F
6HR MIN TEMP:  63; 6HR MAX TEMP:  86;

SOUTH HAVEN    SUNNY     86  60  40 W8        29.97S
$$
MIZ016>042-261900-
NORTHERN LOWER MICHIGAN

CITY           SKY/WX    TMP DP  RH WIND       PRES   REMARKS
ALPENA         SUNNY     86  68  54 SE8       29.92F
6HR MIN TEMP:  60; 6HR MAX TEMP:  88;

BEAVER ISLAND  PTSUNNY   76  62  61 SW9       29.91F
6HR MIN TEMP:  66; 6HR MAX TEMP:  81;

BELLAIRE       PTSUNNY   87  56  34 S6        29.91S
6HR MIN TEMP:  54; 6HR MAX TEMP:  88;

CADILLAC       MOSUNNY   87  53  30 S10G18    29.96S
CHARLEVOIX     CLOUDY    86  58  38 S7        29.93S
FRANKFORT      PTSUNNY   82  64  53 SW7       29.91S
GAYLORD        MOSUNNY   85  56  37 S13       29.95F
6HR MIN TEMP:  55; 6HR MAX TEMP:  85;

GRAYLING       SUNNY     86  55  33 S8G18     29.96S
6HR MIN TEMP:  51; 6HR MAX TEMP:  87;

HARBOR SPRINGS PTSUNNY   86  57  38 SW9       29.90F
HOUGHTON LAKE  SUNNY     87  56  34 SW7       29.96F
6HR MIN TEMP:  54; 6HR MAX TEMP:  87;

MANISTEE       CLOUDY    87  63  44 SW10      29.90
OSCODA         SUNNY     89  56  33 SW14G20   29.93F
6HR MIN TEMP:  64; 6HR MAX TEMP:  89;

PELLSTON       PTSUNNY   88  59  37 S9        29.90F
6HR MIN TEMP:  51; 6HR MAX TEMP:  88;

ROGERS CITY    SUNNY     87  59  37 SW9       29.92F
TRAVERSE CITY  PTSUNNY   90  57  32 SW10G21   29.89F
6HR MIN TEMP:  61; 6HR MAX TEMP:  91;

$$
MIZ007>008-015-261900-
EASTERN UPPER MICHIGAN

CITY           SKY/WX    TMP DP  RH WIND       PRES   REMARKS
KINROSS        PTSUNNY   81  60  48 SW9       29.91S
6HR MIN TEMP:  62; 6HR MAX TEMP:  84;

MACKINAC ISLAN CLOUDY    83  57  40 S6        29.90S
6HR MIN TEMP:  65; 6HR MAX TEMP:  83;

NEWBERRY       CLOUDY    76  61  61 SW8       29.90F
6HR MIN TEMP:  60; 6HR MAX TEMP:  77;

S. S. MARIE    MOSUNNY   83  59  44 S8        29.88F
6HR MIN TEMP:  63; 6HR MAX TEMP:  84;

MUNISING         N/A     73  67  81 VRB3      29.88F
6HR MIN TEMP:  61; 6HR MAX TEMP:  73;

$$
MIZ004>006-011>014-085-261900-
CENTRAL UPPER MICHIGAN

CITY           SKY/WX    TMP DP  RH WIND       PRES   REMARKS
MANISTIQUE     CLOUDY    71  65  81 S6        29.89F
6HR MIN TEMP:  58; 6HR MAX TEMP:  72;

MENOMINEE      CLOUDY    75  66  73 SW6       29.91F
6HR MIN TEMP:  65; 6HR MAX TEMP:  75;

SAWYER-GWINN   MOSUNNY   68  64  88 SW9       29.91S
$$
MIZ001>003-009>011-084-261900-
WESTERN UPPER MICHIGAN

CITY           SKY/WX    TMP DP  RH WIND       PRES   REMARKS
IRON MOUNTAIN  CLOUDY    71  65  81 S5        29.89F
6HR MIN TEMP:  63; 6HR MAX TEMP:  71; 6HR PCP: TRACE;

HOUGHTON       CLOUDY    60  59  96 SW3       29.87F FOG
6HR MIN TEMP:  55; 6HR MAX TEMP:  61; 6HR PCP: TRACE;

COPPER HARBOR    N/A     61  59  93 N6        29.86F
6HR MIN TEMP:  57; 6HR MAX TEMP:  62;

IRONWOOD       LGT RAIN  61  60  97 CALM      29.89F
6HR MIN TEMP:  56; 6HR MAX TEMP:  61; 6HR PCP:  0.02;

$$

ABBREVIATIONS USED IN REMARKS
   TC - TEMPERATURE IN CELSIUS
  WCI - WIND CHILL INDEX
   HX - HEAT INDEX
  VSB - VISIBILITY





USA.gov is the U.S. government's official web portal to all federal, state and local government web resources and services.